Location: Augustenthal
(51.7167°N, 10.2833°E)
Time: 13:41:24
(UTC+00:00)

Cosmos 1455 Rocket - Pass Details

Date: 02 October 2021
Orbit: 606 x 628 km, 82.5° (Epoch: 21 October)

Event Time Altitude Azimuth Distance (km) Brightness Sun altitude
Exits shadow 19:18:04 12° 33° (NNE) 1,834 5.4 -22.7°
Drops below altitude 10° 19:18:31 10° 29° (NNE) 1,991 5.6 -22.7°
Sets 19:20:58 0° 19° (NNE) 2,906 6.6 -23.1°
